Location: �quirre
(50.4736°N, 2.2351°E)
Time: 02:55:01
(UTC+00:00)

Cosmos 1680 Rocket - Pass Details

Date: 07 August 2020
Orbit: 760 x 780 km, 74.1° (Epoch: 25 September)

Event Time Altitude Azimuth Distance (km) Brightness Sun altitude
Rises 02:09:19 0° 335° (NNW) 3,248 7.2 -17.1°
Reaches altitude 10° 02:11:43 10° 335° (NNW) 2,315 6.4 -16.9°
Maximum altitude 02:16:58 83° 248° (WSW) 776 3.4 -16.5°
Drops below altitude 10° 02:22:10 10° 161° (SSE) 2,290 5.6 -16.0°
Enters shadow 02:22:43 - 161° (SSE) 2,503 5.8 -15.9°
